N2DJ Weather Reports


Display with metric or nautical units.
time (UTC)temp
F
wind
direction
speed
MPH
gust
MPH
rain 1hr
in
rain 24hr
in
rain mn
in
humidity
%
barometer
mb
20260904044505 68 71 0.0 0.0 0.00 0.31 0.00 98 1014.6
20260904043004 68 70 0.0 0.0 0.00 0.31 0.00 99 1014.6
20260904041503 68 71 0.0 0.0 0.00 0.31 0.00 99 1014.7
20260904040003 68 70 0.0 0.0 0.00 0.31 0.31 99 1014.6
20260904034501 68 70 0.0 0.0 0.00 0.31 0.31 98 1014.4
20260904033100 68 70 0.0 0.0 0.00 0.31 0.31 98 1014.3
20260904031559 68 71 0.0 0.0 0.00 0.31 0.31 98 1014.1
20260904030058 69 71 0.0 0.0 0.00 0.31 0.31 98 1013.9
20260904024601 69 70 0.0 0.0 0.00 0.31 0.31 98 1013.7
20260904023106 69 70 0.0 0.0 0.00 0.31 0.31 98 1013.8
20260904021600 69 70 0.0 0.0 0.00 0.31 0.31 97 1014.0
20260904020057 69 71 0.0 0.0 0.00 0.31 0.31 97 1014.2
20260904014556 69 71 0.0 0.0 0.00 0.55 0.31 97 1014.2
20260904013055 70 71 0.0 0.0 0.02 0.55 0.31 97 1013.8
20260904011555 70 70 0.0 2.0 0.04 0.55 0.31 97 1013.6
20260904010100 71 59 1.0 9.0 0.04 0.55 0.31 97 1013.1
20260904004600 72 12 1.0 3.0 0.05 0.59 0.31 98 1013.3
20260904003054 72 332 0.0 0.0 0.06 0.56 0.28 98 1012.8
20260904001553 72 241 0.0 2.0 0.20 0.55 0.27 97 1012.7
20260904000128 73 185 1.0 5.0 0.20 0.55 0.27 97 1012.9
20260903234552 73 202 1.0 4.0 0.19 1.12 0.26 97 1013.0
20260903233051 74 157 1.0 5.0 0.16 1.09 0.23 97 1012.9
20260903231551 74 183 0.0 3.0 0.00 0.93 0.07 97 1012.6
20260903230051 75 151 0.0 2.0 0.00 0.93 0.07 97 1012.8
20260903224600 75 147 0.0 2.0 0.00 0.98 0.07 96 1012.8
20260903223050 76 147 0.0 1.0 0.00 0.98 0.07 96 1012.8
20260903221550 76 147 0.0 1.0 0.00 0.98 0.07 96 1012.8
20260903220105 76 132 0.0 1.0 0.04 0.98 0.07 96 1012.5
20260903214548 76 132 0.0 1.0 0.07 0.98 0.07 95 1012.4
20260903213047 76 132 0.0 1.0 0.07 0.98 0.07 94 1012.4
20260903211613 76 132 0.0 0.0 0.07 0.98 0.07 92 1012.3
20260903210045 78 132 0.0 1.0 0.02 0.93 0.02 89 1012.6
20260903204544 79 174 1.0 3.0 0.00 0.91 0.00 86 1012.6
20260903203044 80 139 1.0 6.0 0.00 0.91 0.00 85 1012.5
20260903201543 81 122 0.0 5.0 0.00 0.91 0.00 86 1012.8
20260903200043 80 197 1.0 6.0 0.00 0.91 0.00 85 1013.0
20260903194546 80 298 0.0 2.0 0.00 0.91 0.00 86 1013.1
20260903193042 80 222 1.0 6.0 0.00 0.91 0.00 85 1013.0
20260903191541 80 230 0.0 12.0 0.00 0.91 0.00 85 1012.9
20260903190040 80 232 2.0 9.0 0.00 0.91 0.00 84 1013.2
20260903184540 81 162 1.0 8.0 0.00 0.91 0.00 84 1013.3
20260903183039 81 254 1.0 7.0 0.00 0.91 0.00 84 1013.3
20260903181538 81 217 1.0 8.0 0.00 0.91 0.00 84 1013.4
20260903180037 80 271 3.0 11.0 0.00 0.91 0.00 84 1013.4
20260903174553 80 188 3.0 6.0 0.00 0.91 0.00 85 1013.6
20260903173036 80 179 1.0 8.0 0.00 0.91 0.00 87 1013.6
20260903171534 79 153 2.0 9.0 0.00 0.91 0.00 85 1013.7
20260903170036 79 182 1.0 8.0 0.00 0.91 0.00 87 1013.7
20260903164530 79 191 1.0 5.0 0.00 0.91 0.00 87 1013.6
20260903163030 79 130 2.0 9.0 0.00 0.91 0.00 85 1013.8
20260903161528 79 279 2.0 8.0 0.00 0.91 0.00 86 1013.9
20260903160024 78 188 1.0 5.0 0.00 0.91 0.00 87 1014.0
20260903154523 77 205 1.0 5.0 0.00 0.91 0.00 87 1014.2
20260903153021 77 236 1.0 5.0 0.00 0.91 0.00 89 1014.2
20260903151520 77 198 2.0 9.0 0.00 0.91 0.00 87 1014.4
20260903150024 76 340 0.0 7.0 0.00 0.91 0.00 91 1014.4
20260903144516 76 269 0.0 4.0 0.00 0.91 0.00 91 1014.6
20260903143014 75 205 1.0 4.0 0.00 0.91 0.00 93 1014.6
20260903141516 75 248 0.0 4.0 0.00 0.91 0.00 92 1014.5
20260903140112 76 188 0.0 3.0 0.00 0.91 0.00 93 1014.4
20260903134508 75 256 1.0 5.0 0.00 0.91 0.00 96 1014.4
20260903133005 73 313 1.0 4.0 0.00 0.91 0.00 98 1014.5
20260903131602 72 233 1.0 4.0 0.00 0.91 0.00 99 1014.6
20260903130112 71 246 0.0 5.0 0.00 0.91 0.00 99 1014.6
20260903124553 71 245 0.0 4.0 0.00 1.63 0.00 99 1014.9
20260903123049 70 240 0.0 2.0 0.00 1.63 0.00 99 1015.0
20260903121548 69 240 0.0 5.0 0.00 1.63 0.00 99 1014.8
20260903120045 69 240 0.0 3.0 0.00 1.63 0.00 99 1014.8
20260903114542 69 261 1.0 4.0 0.00 1.68 0.00 99 1014.6
20260903113040 69 250 0.0 2.0 0.00 1.68 0.00 99 1014.3
20260903111613 69 272 0.0 3.0 0.00 1.68 0.00 99 1014.2
20260903110040 69 274 0.0 1.0 0.00 1.68 0.00 99 1014.1
20260903104542 69 274 0.0 1.0 0.00 1.68 0.00 99 1013.7
20260903103033 69 274 0.0 1.0 0.00 1.68 0.00 99 1013.5
20260903101539 69 274 0.0 2.0 0.00 1.68 0.00 99 1013.6
20260903100032 69 272 0.0 2.0 0.00 1.68 0.00 99 1013.4
20260903094529 69 282 0.0 2.0 0.00 1.68 0.00 98 1013.3
20260903093037 69 204 0.0 0.0 0.00 1.68 0.00 98 1013.2
20260903091532 69 206 0.0 3.0 0.00 1.68 0.00 98 1013.1
20260903090028 69 205 1.0 3.0 0.00 1.68 0.00 98 1013.0
20260903084533 69 206 0.0 2.0 0.00 1.68 0.00 98 1012.9
20260903083027 69 206 0.0 0.0 0.00 1.68 0.00 98 1013.1
20260903081527 69 206 0.0 2.0 0.00 1.68 0.00 97 1013.0
20260903080026 69 206 0.0 2.0 0.00 1.68 0.00 97 1012.9
20260903074525 69 205 0.0 3.0 0.00 1.68 0.00 97 1013.0
20260903073036 70 207 0.0 3.0 0.00 1.68 0.00 97 1012.9
20260903071525 70 242 0.0 2.0 0.00 1.68 0.00 97 1012.8
20260903070034 70 154 0.0 7.0 0.00 1.68 0.00 98 1012.8
20260903064519 70 194 1.0 9.0 0.00 1.68 0.00 97 1013.2
20260903063019 70 227 1.0 6.0 0.00 1.68 0.00 98 1013.3
20260903061533 69 347 1.0 5.0 0.00 1.68 0.00 98 1013.2
20260903060017 69 265 1.0 4.0 0.00 1.68 0.00 98 1013.1
20260903054517 69 265 2.0 8.0 0.00 1.68 0.00 98 1012.8
20260903053015 70 275 2.0 9.0 0.00 1.68 0.00 99 1013.1
20260903051515 70 178 3.0 10.0 0.00 1.68 0.00 99 1012.9
20260903050014 69 177 2.0 9.0 0.00 1.68 0.00 99 1013.0